When you browse on this site, cookies collect data to enhance your experience and personalize the content and advertising you see.
Visit our Privacy Policy to learn more. By continuing to use the site, you agree to this use of cookies and data.
  • In Lithuania
  • List of Countries
  • For 7 days
  • Water Temperature
  • Satellite Maps
  • Weather Map
  • Weather Widgets
  • user-avatar
    Login

    Hourly Weather Novonikolskiy

    Today, 16 February, Saturday

    Time Temperature Precipitation Wind Pressure Humidity
    00:00 +1°C° 0 mm 1 mps 747 mmHg 93%
    01:00 0°C° 0 mm 1 mps 747 mmHg 93%
    02:00 -1°C° 0 mm 0 mps 746 mmHg 94%
    03:00 -1°C° 0 mm 0 mps 746 mmHg 94%
    04:00 -1°C° 0 mm 0 mps 746 mmHg 94%
    05:00 0°C° 0 mm 1 mps 746 mmHg 93%
    06:00 0°C° 0 mm 1 mps 745 mmHg 93%
    07:00 -1°C° 0 mm 2 mps 745 mmHg 89%
    08:00 0°C° 0 mm 3 mps 745 mmHg 85%
    09:00 0°C° 0 mm 3 mps 745 mmHg 81%
    10:00 0°C° 0 mm 4 mps 745 mmHg 75%
    11:00 +1°C° 0 mm 4 mps 744 mmHg 68%
    12:00 +4°C° 0 mm 4 mps 744 mmHg 62%
    13:00 +3°C° 0 mm 5 mps 744 mmHg 59%
    14:00 +3°C° 0 mm 5 mps 744 mmHg 56%
    15:00 +4°C° 0 mm 6 mps 743 mmHg 53%
    16:00 +3°C° 0 mm 5 mps 744 mmHg 54%
    17:00 +2°C° 0 mm 5 mps 744 mmHg 55%
    18:00 +1°C° 0 mm 4 mps 744 mmHg 56%
    19:00 +1°C° 0.1 mm 4 mps 745 mmHg 62%
    20:00 0°C° 0.1 mm 5 mps 745 mmHg 68%
    21:00 0°C° 0.1 mm 5 mps 745 mmHg 75%
    22:00 0°C° 0 mm 5 mps 745 mmHg 77%
    23:00 0°C° 0 mm 5 mps 745 mmHg 79%

    Tomorrow, 17 February, Sunday

    Time Temperature Precipitation Wind Pressure Humidity
    00:00 0°C° 0 mm 5 mps 745 mmHg 81%
    01:00 0°C° 0 mm 5 mps 745 mmHg 81%
    02:00 0°C° 0 mm 5 mps 745 mmHg 81%
    03:00 0°C° 0 mm 5 mps 745 mmHg 81%
    04:00 0°C° 0 mm 5 mps 745 mmHg 80%
    05:00 0°C° 0 mm 5 mps 745 mmHg 79%
    06:00 -1°C° 0 mm 6 mps 745 mmHg 77%
    07:00 -1°C° 0 mm 6 mps 745 mmHg 75%
    08:00 -1°C° 0 mm 7 mps 745 mmHg 73%
    09:00 0°C° 0 mm 8 mps 745 mmHg 70%
    10:00 +1°C° 0 mm 8 mps 745 mmHg 67%
    11:00 +2°C° 0 mm 8 mps 745 mmHg 64%
    12:00 +4°C° 0 mm 8 mps 744 mmHg 61%
    13:00 +4°C° 0 mm 8 mps 744 mmHg 60%
    14:00 +5°C° 0 mm 8 mps 743 mmHg 59%
    15:00 +6°C° 0 mm 8 mps 743 mmHg 57%
    16:00 +5°C° 0 mm 7 mps 742 mmHg 61%
    17:00 +4°C° 0 mm 6 mps 742 mmHg 64%
    18:00 +5°C° 0 mm 5 mps 742 mmHg 68%
    19:00 +3°C° 0 mm 5 mps 742 mmHg 68%
    20:00 +3°C° 0 mm 6 mps 742 mmHg 68%
    21:00 +3°C° 0 mm 6 mps 741 mmHg 69%
    22:00 +3°C° 0 mm 6 mps 741 mmHg 68%
    23:00 +3°C° 0 mm 6 mps 741 mmHg 67%

    Day after tomorrow, 18 February, Monday

    Time Temperature Precipitation Wind Pressure Humidity
    00:00 +3°C° 0 mm 6 mps 740 mmHg 66%
    01:00 +4°C° 0 mm 7 mps 740 mmHg 64%
    02:00 +4°C° 0 mm 7 mps 739 mmHg 63%
    03:00 +4°C° 0 mm 8 mps 739 mmHg 61%
    04:00 +4°C° 0 mm 8 mps 739 mmHg 62%
    05:00 +3°C° 0 mm 9 mps 739 mmHg 62%
    06:00 +3°C° 0 mm 9 mps 738 mmHg 63%
    07:00 +3°C° 0 mm 10 mps 739 mmHg 62%
    08:00 +4°C° 0 mm 11 mps 739 mmHg 61%
    09:00 +5°C° 0 mm 12 mps 739 mmHg 60%
    10:00 +5°C° 0 mm 12 mps 739 mmHg 59%
    11:00 +5°C° 0 mm 13 mps 739 mmHg 59%
    12:00 +7°C° 0 mm 13 mps 739 mmHg 58%
    13:00 +5°C° 0 mm 13 mps 739 mmHg 59%
    14:00 +5°C° 0 mm 12 mps 739 mmHg 61%
    15:00 +4°C° 0 mm 12 mps 739 mmHg 62%
    16:00 +3°C° 0 mm 11 mps 739 mmHg 61%
    17:00 +2°C° 0 mm 11 mps 740 mmHg 60%
    18:00 +1°C° 0 mm 10 mps 740 mmHg 59%
    19:00 0°C° 0 mm 9 mps 741 mmHg 60%
    20:00 -1°C° 0 mm 8 mps 742 mmHg 62%
    21:00 -2°C° 0 mm 8 mps 743 mmHg 63%
    22:00 -3°C° 0 mm 7 mps 744 mmHg 64%
    23:00 -4°C° 0 mm 6 mps 744 mmHg 65%

    19 February, Tuesday

    Time Temperature Precipitation Wind Pressure Humidity
    00:00 -4°C° 0 mm 5 mps 745 mmHg 66%
    01:00 -5°C° 0 mm 5 mps 746 mmHg 65%
    02:00 -5°C° 0 mm 6 mps 746 mmHg 63%
    03:00 -5°C° 0 mm 6 mps 746 mmHg 62%
    04:00 -5°C° 0 mm 6 mps 747 mmHg 61%
    05:00 -5°C° 0 mm 6 mps 747 mmHg 61%
    06:00 -5°C° 0 mm 6 mps 748 mmHg 60%
    07:00 -5°C° 0 mm 6 mps 749 mmHg 58%
    08:00 -5°C° 0 mm 6 mps 750 mmHg 56%
    09:00 -5°C° 0 mm 6 mps 750 mmHg 54%
    10:00 -4°C° 0 mm 6 mps 751 mmHg 52%
    11:00 -2°C° 0 mm 5 mps 751 mmHg 49%
    12:00 -1°C° 0 mm 5 mps 751 mmHg 47%
    13:00 -1°C° 0 mm 5 mps 751 mmHg 46%
    14:00 -1°C° 0 mm 4 mps 751 mmHg 46%
    15:00 0°C° 0 mm 4 mps 751 mmHg 46%
    16:00 0°C° 0 mm 3 mps 752 mmHg 50%
    17:00 -1°C° 0 mm 3 mps 752 mmHg 55%
    18:00 -2°C° 0 mm 2 mps 753 mmHg 60%
    19:00 -2°C° 0 mm 2 mps 753 mmHg 61%
    20:00 -3°C° 0 mm 2 mps 754 mmHg 62%
    21:00 -1°C° 0 mm 1 mps 754 mmHg 62%
    22:00 -1°C° 0 mm 1 mps 754 mmHg 62%
    23:00 -1°C° 0 mm 1 mps 754 mmHg 62%

    20 February, Wednesday

    Time Temperature Precipitation Wind Pressure Humidity
    00:00 -3°C° 0 mm 2 mps 754 mmHg 62%
    01:00 -3°C° 0 mm 2 mps 753 mmHg 63%
    02:00 -4°C° 0 mm 2 mps 753 mmHg 63%
    03:00 -4°C° 0 mm 2 mps 753 mmHg 63%
    04:00 -4°C° 0 mm 2 mps 753 mmHg 64%
    05:00 -4°C° 0 mm 2 mps 753 mmHg 64%
    06:00 -4°C° 0 mm 2 mps 752 mmHg 64%
    07:00 -3°C° 0 mm 2 mps 752 mmHg 60%
    08:00 -2°C° 0 mm 3 mps 752 mmHg 57%
    09:00 -2°C° 0 mm 3 mps 752 mmHg 53%
    10:00 0°C° 0 mm 3 mps 752 mmHg 49%
    11:00 +1°C° 0 mm 3 mps 752 mmHg 44%
    12:00 +2°C° 0 mm 3 mps 751 mmHg 40%
    13:00 +3°C° 0 mm 3 mps 751 mmHg 39%
    14:00 +3°C° 0 mm 3 mps 750 mmHg 39%
    15:00 +4°C° 0 mm 3 mps 750 mmHg 39%
    16:00 +2°C° 0 mm 3 mps 750 mmHg 43%
    17:00 +2°C° 0 mm 2 mps 750 mmHg 48%
    18:00 +1°C° 0 mm 2 mps 750 mmHg 53%
    19:00 -1°C° 0 mm 2 mps 750 mmHg 54%
    20:00 -1°C° 0 mm 2 mps 750 mmHg 56%
    21:00 +1°C° 0 mm 1 mps 750 mmHg 57%
    22:00 +1°C° 0 mm 1 mps 750 mmHg 59%
    23:00 +1°C° 0 mm 1 mps 750 mmHg 61%

    21 February, Thursday

    Time Temperature Precipitation Wind Pressure Humidity
    00:00 -1°C° 0 mm 0 mps 749 mmHg 64%
    01:00 -1°C° 0 mm 0 mps 749 mmHg 63%
    02:00 0°C° 0 mm 1 mps 749 mmHg 61%
    03:00 0°C° 0 mm 1 mps 749 mmHg 60%
    04:00 0°C° 0 mm 1 mps 749 mmHg 59%
    05:00 0°C° 0 mm 1 mps 749 mmHg 57%
    06:00 0°C° 0 mm 1 mps 749 mmHg 56%
    07:00 +1°C° 0 mm 1 mps 749 mmHg 52%
    08:00 +2°C° 0 mm 2 mps 749 mmHg 49%
    09:00 +3°C° 0 mm 2 mps 749 mmHg 45%
    10:00 +4°C° 0 mm 2 mps 749 mmHg 43%
    11:00 +6°C° 0 mm 2 mps 748 mmHg 42%
    12:00 +7°C° 0 mm 2 mps 748 mmHg 40%
    13:00 +9°C° 0 mm 1 mps 747 mmHg 39%
    14:00 +9°C° 0 mm 1 mps 747 mmHg 39%
    15:00 +10°C° 0 mm 1 mps 747 mmHg 38%
    16:00 +8°C° 0 mm 1 mps 747 mmHg 42%
    17:00 +7°C° 0 mm 1 mps 747 mmHg 46%
    18:00 +6°C° 0 mm 1 mps 747 mmHg 51%
    19:00 +5°C° 0 mm 1 mps 747 mmHg 54%
    20:00 +5°C° 0 mm 1 mps 747 mmHg 58%
    21:00 +4°C° 0 mm 1 mps 747 mmHg 62%
    22:00 +4°C° 0 mm 1 mps 746 mmHg 63%
    23:00 +3°C° 0 mm 2 mps 746 mmHg 65%
    Show more